SCP
-0 -0 -0 -0 0 0 0 0 0 -0 -0 -0 -0 -0 -0 0 -0 -0 -0 -0 -0 -0
-0 -0 -0 -0 0 0 0 0 -0 0 -0 -0 -0 -0 -0 -0 -0 0 0 0 -0 -0
-0 -0 -0 -0 -0 -0 -0 0 0 0 -0 -0 -0 -0 -0 -0 0 -0 0 0 0 -0
0 -0 -0 -0 -0 -0 -0 -0 0 0 0 -0 -0 -0 -0 -0 0 0 0 0 0 -0
0 0 -0 -0 -0 -0 -0 0 0 0 0 0 0 0 -0 -0 0 0 0 0 0 0
0 0 0 -0 -0 -0 -0 0 0 0 0 0 0 0 0 0 0 -0 0 0 -0 -0
0 0 0 0 0 -0 -0 -0 0 0 0 0 0 0 0 0 0 0 0 -0 -0 -0
1 1 0 0 0 0 0 -0 0 0 0 0 0 0 0 0 0 0 0 0 -0 -0
0 1 1 0 0 0 0 0 0 -0 0 0 0 0 0 0 0 0 0 0 0 0
1 1 1 1 0 0 0 0 -0 0 0 0 0 0 0 0 0 0 0 0 0 -0
1 1 1 1 1 1 0 0 0 0 0 0 0 0 0 0 0 0 0 0 0 0
1 1 1 1 1 1 1 1 0 0 1 0 0 0 0 0 0 0 0 0 0 0
0 -0 0 1 1 1 1 1 1 0 0 0 0 1 0 0 0 0 0 0 0 0
-0 -0 0 1 2 2 1 1 1 1 1 1 1 1 0 0 0 0 0 0 0 0
Wind_Speed_500mb
77 68 62 51 55 48 46 35 24 26 31 23 22 28 30 32 37 36 33 29 25 20
77 78 72 59 50 55 44 39 36 30 31 28 21 20 24 32 33 37 38 36 33 33
80 81 80 70 54 58 48 40 38 42 38 36 30 24 28 31 33 35 34 36 40 42
87 85 85 80 71 59 56 52 49 39 41 48 40 28 29 31 29 33 33 31 31 33
84 89 87 89 84 73 65 59 58 55 43 50 49 36 29 32 33 33 33 29 27 28
85 89 95 91 92 86 76 68 69 65 58 47 51 45 35 31 33 35 37 34 31 29
90 87 91 96 94 93 89 82 74 68 65 60 56 51 43 38 34 36 41 42 40 35
97 89 84 88 99 98 96 94 89 82 75 67 62 62 59 53 48 44 43 46 49 48
99 95 92 86 87 95 102 102 98 96 88 86 78 71 65 59 53 49 49 48 49 48
95 92 89 91 86 89 91 96 107 104 98 93 91 87 79 71 63 57 55 53 51 49
91 92 84 86 86 82 83 85 93 101 105 99 96 90 86 79 72 65 61 57 52 49
78 86 91 89 89 82 73 77 84 89 92 100 97 89 82 79 77 72 68 62 58 55
37 76 99 97 92 86 78 69 74 81 87 89 89 88 83 79 77 77 74 70 67 62
64 72 94 108 104 95 83 78 77 78 76 79 81 81 77 71 72 75 76 76 74 69
Wind_Direction_500mb
212 209 211 216 221 218 216 219 212 212 210 206 199 203 208 205 203 208 207 208 221 222
213 212 212 216 217 220 226 220 210 210 201 201 205 213 214 208 209 213 216 216 223 224
220 215 212 213 217 216 219 212 213 223 223 215 218 220 216 215 209 215 219 222 224 231
228 221 216 216 216 219 218 220 221 224 232 225 223 229 222 217 213 212 211 218 225 228
232 228 222 218 218 219 222 224 227 232 232 224 224 230 232 223 218 214 209 209 221 223
234 232 229 224 221 222 223 225 231 235 233 222 225 228 233 238 231 231 230 231 234 236
236 234 233 232 228 224 225 226 229 233 236 233 235 239 239 241 245 244 242 242 242 239
237 239 237 236 235 232 228 229 232 232 234 234 234 240 244 248 252 253 248 245 245 246
238 238 240 238 238 237 234 233 232 234 235 235 238 241 245 250 252 254 255 250 247 248
242 239 241 242 240 239 238 236 236 237 237 237 238 242 246 247 251 254 255 256 255 251
238 242 243 241 241 240 240 238 236 238 239 240 242 244 246 248 251 253 254 255 257 255
242 244 244 242 240 240 241 241 237 237 240 241 243 244 244 245 248 251 251 252 252 254
247 251 244 249 245 242 243 244 242 240 239 242 245 247 249 248 246 248 250 252 254 255
276 259 249 246 249 246 243 243 245 244 243 243 243 244 244 245 245 246 249 251 254 257
Wind_Speed_850mb
77 68 62 51 55 48 46 35 24 26 31 23 22 28 30 32 37 36 33 29 25 20
77 78 72 59 50 55 44 39 36 30 31 28 21 20 24 32 33 37 38 36 33 33
80 81 80 70 54 58 48 40 38 42 38 36 30 24 28 31 33 35 34 36 40 42
87 85 85 80 71 59 56 52 49 39 41 48 40 28 29 31 29 33 33 31 31 33
84 89 87 89 84 73 65 59 58 55 43 50 49 36 29 32 33 33 33 29 27 28
85 89 95 91 92 86 76 68 69 65 58 47 51 45 35 31 33 35 37 34 31 29
90 87 91 96 94 93 89 82 74 68 65 60 56 51 43 38 34 36 41 42 40 35
97 89 84 88 99 98 96 94 89 82 75 67 62 62 59 53 48 44 43 46 49 48
99 95 92 86 87 95 102 102 98 96 88 86 78 71 65 59 53 49 49 48 49 48
95 92 89 91 86 89 91 96 107 104 98 93 91 87 79 71 63 57 55 53 51 49
91 92 84 86 86 82 83 85 93 101 105 99 96 90 86 79 72 65 61 57 52 49
78 86 91 89 89 82 73 77 84 89 92 100 97 89 82 79 77 72 68 62 58 55
37 76 99 97 92 86 78 69 74 81 87 89 89 88 83 79 77 77 74 70 67 62
64 72 94 108 104 95 83 78 77 78 76 79 81 81 77 71 72 75 76 76 74 69
Wind_Direction_850mb
212 209 211 216 221 218 216 219 212 212 210 206 199 203 208 205 203 208 207 208 221 222
213 212 212 216 217 220 226 220 210 210 201 201 205 213 214 208 209 213 216 216 223 224
220 215 212 213 217 216 219 212 213 223 223 215 218 220 216 215 209 215 219 222 224 231
228 221 216 216 216 219 218 220 221 224 232 225 223 229 222 217 213 212 211 218 225 228
232 228 222 218 218 219 222 224 227 232 232 224 224 230 232 223 218 214 209 209 221 223
234 232 229 224 221 222 223 225 231 235 233 222 225 228 233 238 231 231 230 231 234 236
236 234 233 232 228 224 225 226 229 233 236 233 235 239 239 241 245 244 242 242 242 239
237 239 237 236 235 232 228 229 232 232 234 234 234 240 244 248 252 253 248 245 245 246
238 238 240 238 238 237 234 233 232 234 235 235 238 241 245 250 252 254 255 250 247 248
242 239 241 242 240 239 238 236 236 237 237 237 238 242 246 247 251 254 255 256 255 251
238 242 243 241 241 240 240 238 236 238 239 240 242 244 246 248 251 253 254 255 257 255
242 244 244 242 240 240 241 241 237 237 240 241 243 244 244 245 248 251 251 252 252 254
247 251 244 249 245 242 243 244 242 240 239 242 245 247 249 248 246 248 250 252 254 255
276 259 249 246 249 246 243 243 245 244 243 243 243 244 244 245 245 246 249 251 254 257